Valladolid Airport, Spain

10:46 AM CEST on May 28, 2018 (GMT +0200)
Villanubla

Weather History for LEVD - February, 2014

Change the Weather History Date:

Sunday, February 23, 2014

  Actual Average Record
Temperature  
Mean Temperature 42 °F -  
Max Temperature 55 °F - - ()
Min Temperature 28 °F - - ()
Degree Days  
Heating Degree Days 24    
Moisture  
Dew Point 33 °F    
Average Humidity 67    
Maximum Humidity 100    
Minimum Humidity 31    
Precipitation  
Precipitation 0.00 in - - ()
Sea Level Pressure  
Sea Level Pressure 29.96 in    
Wind  
Wind Speed 7 mph ()    
Max Wind Speed 13 mph    
Max Gust Speed 24 mph    
Visibility 15.4 miles    
Events      
T = Trace of Precipitation, MM = Missing Value Source: Averaged Metar Reports

Daily Weather History Graph

Daily Weather History Graph

Search for Another Location

Airport or City:

Astronomy

Feb. 23, 2014 Rise Set
Actual Time 8:03 AM CET 7:02 PM CET
Civil Twilight 7:35 AM CET 7:30 PM CET
Nautical Twilight 7:03 AM CET 8:02 PM CET
Astronomical Twilight 6:31 AM CET 8:35 PM CET
Moon 2:49 AM CET (2/23) 12:49 PM CET (2/23)
Length of Visible Light 11h 54m
Length of Day
10h 58m
Last Quarter, 42% of the Moon is Illuminated
Feb 23
Last Quarter
Mar 1
New
Mar 8
First Quarter
Mar 16
Full
Mar 24
Last Quarter

Hourly Weather History & Observations

Time (CET) Temp. Windchill Dew Point Humidity Pressure Visibility Wind Dir Wind Speed Gust Speed Precip Events Conditions
7:00 AM 29 °F - 29 °F 100%  in 7 mi East 5.8 mph - -   Clear
7:00 AM 28.4 °F 22.2 °F 28.4 °F 100% 30.09 in - East 5.8 mph - N/A   Clear
7:30 AM 30.2 °F 23.4 °F 30.2 °F 100% 30.09 in - East 6.9 mph - N/A   Clear
8:00 AM 28.4 °F 22.2 °F 28.4 °F 100% 30.06 in - East 5.8 mph - N/A   Clear
8:30 AM 30.2 °F 22.6 °F 30.2 °F 100% 30.06 in - East 8.1 mph - N/A   Clear
9:00 AM 32.0 °F 27.5 °F 32.0 °F 100% 30.06 in - East 4.6 mph - N/A   Clear
9:30 AM 33.8 °F 28.6 °F 32.0 °F 93% 30.06 in - East 5.8 mph - N/A   Clear
10:00 AM 35 °F - 34 °F 96%  in 16 mi East 3.5 mph - -   Clear
10:00 AM 35.6 °F 32.8 °F 33.8 °F 93% 30.06 in - East 3.5 mph - N/A   Clear
10:30 AM 37.4 °F 34.9 °F 35.6 °F 93% 30.06 in - East 3.5 mph - N/A   Clear
11:00 AM 41.0 °F 38.0 °F 37.4 °F 87% 30.06 in - East 4.6 mph - N/A   Clear
11:30 AM 42.8 °F 38.6 °F 37.4 °F 81% 30.04 in - ESE 6.9 mph - N/A   Clear
12:00 PM 46.4 °F 42.4 °F 37.4 °F 71% 30.04 in - ESE 8.1 mph - N/A   Clear
12:30 PM 48.2 °F - 35.6 °F 62% 30.04 in - SSE 6.9 mph - N/A   Clear
1:00 PM 48 °F - 37 °F 56%  in 19 mi SE 8.1 mph - -   Clear
1:00 PM 48.2 °F - 37.4 °F 66% 30.01 in - SE 8.1 mph - N/A   Clear
1:30 PM 50.0 °F - 39.2 °F 66% 29.98 in - SE 8.1 mph - N/A   Clear
2:00 PM 53.6 °F - 39.2 °F 58% 29.98 in - SSW 12.7 mph 24.2 mph N/A   Clear
2:30 PM 53.6 °F - 37.4 °F 54% 29.95 in - SSW 11.5 mph - N/A   Clear
3:00 PM 55.4 °F - 37.4 °F 51% 29.92 in - SSW 11.5 mph - N/A   Clear
3:30 PM 55.4 °F - 33.8 °F 44% 29.92 in - SSW 10.4 mph - N/A   Clear
4:00 PM 55 °F - 33 °F 31%  in 19 mi SSW 10.4 mph - -   Clear
4:00 PM 55.4 °F - 32.0 °F 41% 29.89 in - SSW 10.4 mph - N/A   Clear
4:30 PM 55.4 °F - 32.0 °F 41% 29.86 in - South 10.4 mph - N/A   Clear
5:00 PM 55.4 °F - 32.0 °F 41% 29.86 in - South 10.4 mph - N/A   Clear
5:30 PM 55.4 °F - 32.0 °F 41% 29.86 in - South 11.5 mph - N/A   Clear
6:00 PM 53.6 °F - 33.8 °F 47% 29.86 in - South 9.2 mph - N/A   Clear
6:30 PM 50.0 °F - 33.8 °F 54% 29.86 in - SSE 9.2 mph - N/A   Clear
7:00 PM 48 °F - 32 °F 43%  in 16 mi SSE 10.4 mph - -   Clear
7:00 PM 48.2 °F - 32.0 °F 54% 29.83 in - SSE 10.4 mph - N/A   Clear
7:30 PM 48.2 °F - 30.2 °F 50% 29.83 in - South 10.4 mph - N/A   Clear
8:00 PM 46.4 °F 41.5 °F 30.2 °F 53% 29.86 in - South 10.4 mph - N/A   Clear
8:30 PM 46.4 °F 40.7 °F 30.2 °F 53% 29.86 in - South 12.7 mph - N/A   Clear
9:00 PM 46.4 °F 40.7 °F 30.2 °F 53% 29.86 in - South 12.7 mph - N/A   Clear
9:30 PM 44.6 °F 39.7 °F 30.2 °F 57% 29.86 in - South 9.2 mph - N/A   Clear